{"data":{"norad_id":69101,"intl_designator":"2026-106E","name":"2026-106E","alt_names":[],"object_type":"PAYLOAD","status":"ACTIVE","operator":null,"country":"PRC","launch_date":"2026-05-15","launch_site_code":"JSC","launch_vehicle":null,"mission":null,"orbit_class":"UNKNOWN","rcs_meters":null,"size_class":null,"mass_kg":null,"dimensions":null,"purposes":[],"wikipedia_slug":null,"has_3d_model":false,"image_url":null,"decayed_at":null,"tle_current":{"epoch":"2026-05-15T19:53:53.337984Z","epoch_age_seconds":857689,"freshness":"AGED","line1":"1 69101U 26106E   26135.82908956  .00000497  00000+0  33338-4 0  9999","line2":"2 69101  97.5067 218.5063 0013929 282.6221  77.3451 15.11230034   103","mean_motion":15.11230034,"eccentricity":0.0013929,"inclination_deg":97.5067,"raan_deg":218.5063,"arg_perigee_deg":282.6221,"mean_anomaly_deg":77.3451,"bstar":3.3338e-5,"rev_number":10,"period_min":95.286618688257,"perigee_km":522.82188749501,"apogee_km":542.07339418747,"semimajor_km":6910.5846408412,"source":"CELESTRAK","updated_at":"2026-05-25T13:38:09.295673Z"}}}